Flight Track Log - Related Links

Times and Time Zones

All times are in EDT time to prevent confusion due to time zone crossing. See the ASQ3260 flight status page for this flight to view local times or setup timezone preferences in your user account.

Time Position Orientation Groundspeed Altitude Reporting Facility
EDT Latitude Longitude Course Direction KTS MPH feet Rate Location/Type
Sun 06:46:42 AM 35.3808 -97.6056 162° South 127 146 2,000  Level Fort Worth Center
Sun 06:47:42 AM 35.3378 -97.6011 175° South 157 181 4,000 1,900 Climbing Fort Worth Center
Sun 06:48:42 AM 35.2778 -97.5806 164° South 228 262 5,800 2,050 Climbing Fort Worth Center
Sun 06:49:00 AM 35.1332 -97.4852 175° South  Level Estimated
Sun 06:49:42 AM 35.2122 -97.5550 162° South 247 284 8,100  Level Fort Worth Center
Sun 06:50:00 AM 35.0476 -97.5269 202° Southwest  Level FlightAware Approximate
Sun 06:50:42 AM 35.1461 -97.5297 163° South 268 308 10,000  Level Fort Worth Center
Sun 06:51:00 AM 34.9613 -97.4873 162° South  Level Estimated
Sun 06:51:42 AM 35.0686 -97.5006 163° South 302 348 10,700  Level Fort Worth Center
Sun 06:52:42 AM 34.9764 -97.4653 163° South 342 394 11,900 1,250 Climbing Fort Worth Center
Sun 06:53:42 AM 34.8792 -97.4272 162° South 361 415 13,200 1,240 Climbing Fort Worth Center
Sun 06:54:43 AM 34.7767 -97.3878 162° South 379 436 14,400 1,240 Climbing Fort Worth Center
Sun 06:55:43 AM 34.6736 -97.3472 162° South 385 443 15,700 1,450 Climbing Fort Worth Center
Sun 06:56:43 AM 34.5683 -97.3069 163° South 395 455 17,300 1,800 Climbing Fort Worth Center
Sun 06:57:43 AM 34.4667 -97.2692 163° South 389 448 19,300 1,450 Climbing Fort Worth Center
Sun 06:58:43 AM 34.3639 -97.2283 162° South 388 447 20,200 850 Climbing Fort Worth Center
Sun 06:59:43 AM 34.2556 -97.1856 162° South 406 467 21,000 750 Climbing Fort Worth Center
Sun 07:00:43 AM 34.1428 -97.1536 167° South 414 476 21,700 750 Climbing Fort Worth Center
Sun 07:01:43 AM 34.0164 -97.1289 171° South 416 479 22,500 800 Climbing Fort Worth Center
Sun 07:02:43 AM 33.9011 -97.1058 171° South 418 481 23,300 893 Climbing Fort Worth Center
Sun 07:03:44 AM 33.7864 -97.0819 170° South 419 482 24,300 992 Climbing Fort Worth Center
Sun 07:04:44 AM 33.6722 -97.0586 170° South 419 482 25,300 1,000 Climbing Fort Worth Center
Sun 07:05:44 AM 33.5583 -97.0361 171° South 415 478 26,300 1,050 Climbing Fort Worth Center
Sun 07:06:44 AM 33.4450 -97.0125 170° South 414 476 27,400 1,050 Climbing Fort Worth Center
Sun 07:07:44 AM 33.3322 -96.9919 171° South 411 473 28,400 800 Climbing Fort Worth Center
Sun 07:08:44 AM 33.2192 -96.9686 170° South 411 473 29,000 300 Climbing Fort Worth Center
Sun 07:09:44 AM 33.1003 -96.9450 171° South 427 491 29,000  Level Fort Worth Center
Sun 07:10:45 AM 32.9761 -96.9200 170° South 441 507 29,000  Level Fort Worth Center
Sun 07:11:45 AM 32.8511 -96.8928 170° South 447 514 29,000  Level Fort Worth Center
Sun 07:12:45 AM 32.7289 -96.8578 166° South 447 514 29,000  Level Fort Worth Center
Sun 07:13:45 AM 32.6075 -96.8225 166° South 447 514 29,000  Level Fort Worth Center
Sun 07:14:45 AM 32.4864 -96.7889 167° South 447 514 29,000  Level Fort Worth Center
Sun 07:15:46 AM 32.3650 -96.7536 166° South 447 514 29,000  Level Fort Worth Center
Sun 07:16:46 AM 32.2450 -96.7189 166° South 447 514 29,000  Level Fort Worth Center
Sun 07:17:46 AM 32.1236 -96.6858 167° South 447 514 29,000  Level Fort Worth Center
Sun 07:18:46 AM 32.0025 -96.6511 166° South 447 514 29,000  Level Fort Worth Center
Sun 07:19:47 AM 31.8911 -96.6192 166° South 447 514 29,000  Level Fort Worth Center
Sun 07:20:47 AM 31.7686 -96.5844 166° South 449 517 29,000  Level Fort Worth Center
Sun 07:21:47 AM 31.6475 -96.5508 167° South 448 516 29,000  Level Fort Worth Center
Sun 07:22:48 AM 31.5261 -96.5156 166° South 448 516 29,000  Level Fort Worth Center
Sun 07:23:48 AM 31.4067 -96.4719 163° South 448 516 29,000  Level Fort Worth Center
Sun 07:24:21 AM 31.3319 -96.4458 163° South 450 518 29,000  Level Houston Center
Sun 07:25:21 AM 31.2194 -96.4633 188° South 404 465 29,000  Level Houston Center
Sun 07:26:22 AM 31.1133 -96.4900 192° South 393 452 29,000 -50 Level Houston Center
Sun 07:27:22 AM 31.0050 -96.5061 187° South 393 452 28,900 -1,550 Descending Houston Center
Sun 07:28:22 AM 30.9094 -96.4447 151° Southeast 403 464 25,900 -3,114 Descending Houston Center
Sun 07:28:41 AM 30.8858 -96.4108 129° Southeast 417 480 24,800 -3,344 Descending Houston Center
Sun 07:29:23 AM 30.8322 -96.3450 133° Southeast 414 476 22,500 -3,545 Descending Houston Center
Sun 07:29:47 AM 30.7967 -96.2994 132° Southeast 421 484 20,900 -3,443 Descending Houston Center
Sun 07:30:24 AM 30.7547 -96.2464 133° Southeast 414 476 19,000 -3,600 Descending Houston Center
Sun 07:30:42 AM 30.7286 -96.2122 132° Southeast 414 476 17,600 -3,300 Descending Houston Center
Sun 07:31:24 AM 30.6797 -96.1500 132° Southeast 406 467 15,700 -2,900 Descending Houston Center
Sun 07:31:42 AM 30.6511 -96.1142 133° Southeast 393 452 14,700 -2,600 Descending Houston Center
Sun 07:32:24 AM 30.6072 -96.0594 133° Southeast 384 442 13,100 -2,459 Descending Houston Center
Sun 07:32:43 AM 30.5808 -96.0300 136° Southeast 366 421 12,200 -1,869 Descending Houston Center
Sun 07:33:25 AM 30.5331 -95.9967 149° Southeast 368 423 11,200 -1,672 Descending Houston Center
Sun 07:33:44 AM 30.4878 -95.9706 154° Southeast 373 429 10,500 -1,100 Descending Houston Center
Sun 07:34:25 AM 30.4414 -95.9433 153° Southeast 367 422 10,100 -500 Descending Houston Center
Sun 07:34:44 AM 30.3994 -95.9200 154° Southeast 352 405 10,000 -197 Descending Houston Center
Sun 07:35:26 AM 30.3589 -95.8944 151° Southeast 340 391 9,900 -436 Descending Houston Center
Sun 07:35:39 AM 30.3286 -95.8797 157° South 280 322 9,600 -1,082 Descending Houston Center
Sun 07:36:27 AM 30.2750 -95.8456 151° Southeast 286 329 8,800 -1,000 Descending Houston Center
Sun 07:36:39 AM 30.2603 -95.8394 160° South 278 320 8,600 -1,100 Descending Houston Center
Sun 07:37:27 AM 30.2094 -95.8078 152° Southeast 266 306 7,700 -1,082 Descending Houston Center
Sun 07:37:40 AM 30.1917 -95.7992 157° South 268 308 7,500 -1,054 Descending Houston Center
Sun 07:38:41 AM 30.1231 -95.7611 154° Southeast 275 316 6,400 -1,056 Descending Houston Center
Sun 07:39:28 AM 30.0769 -95.7319 151° Southeast 262 302 5,600 -1,000 Descending Houston Center
Sun 07:39:41 AM 30.0611 -95.7250 159° South 234 269 5,400 -590 Descending Houston Center
Sun 07:40:29 AM 30.0247 -95.7025 152° Southeast 215 247 5,000 -537 Descending Houston Center
Sun 07:40:48 AM 30.0136 -95.6872 130° Southeast 179 206 4,800 -700 Descending Houston Center
Sun 07:41:29 AM 30.0058 -95.6489 103° East 186 214 4,300 -787 Descending Houston Center
Sun 07:41:49 AM 30.0003 -95.6308 110° East 186 214 4,000 -393 Descending Houston Center
Sun 07:42:30 AM 29.9931 -95.5917 102° East 187 215 3,900 -535 Descending Houston Center
Sun 07:43:30 AM 29.9928 -95.5358 90° East 177 204 3,100 -811 Descending Houston Center
Sun 07:43:44 AM 29.9928 -95.5231 90° East 161 185 2,900 -885 Descending Houston Center
Sun 07:44:31 AM 29.9936 -95.4842 89° East 169 194 2,200 -778 Descending Houston Center
Sun 07:45:32 AM 29.9933 -95.4353 90° East 161 185 1,500 -645 Descending Houston Center
Sun 07:46:32 AM 29.9933 -95.3958 90° East 142 163 900 -496 Descending Houston Center
Sun 07:47:33 AM 29.9933 -95.3494 90° East 135 155 500 -393 Descending Houston Center

Login

Don't have an account? Register now (free) for customized features, flight alerts, and more!